Weather History for KPVB - April, 2013

Change the Weather History Date:

Monday, April 29, 2013

  Actual Average (KDBQ) Record (KDBQ)
Temperature  
Mean Temperature 62 °F 53 °F  
Max Temperature 73 °F 64 °F 89 °F (1952)
Min Temperature 51 °F 43 °F 23 °F (1958)
Degree Days  
Heating Degree Days 3 12  
Month to date heating degree days 498  
Since 1 July heating degree days 6809  
Cooling Degree Days 0 0  
Month to date cooling degree days 0  
Year to date cooling degree days 0  
Growing Degree Days 12 (Base 50)    
Moisture  
Dew Point 51 °F    
Average Humidity 73    
Maximum Humidity 88    
Minimum Humidity 50    
Precipitation  
Precipitation 0.18 in 0.14 in 1.60 in (1984)
Month to date precipitation 3.52  
Year to date precipitation 8.54  
Snow  
Snow 0.00 in 0.00 in - ()
Month to date snowfall 2.0  
Since 1 July snowfall 41.9  
Snow Depth -    
Sea Level Pressure  
Sea Level Pressure 29.78 in    
Wind  
Wind Speed 9 mph (SSE)    
Max Wind Speed 21 mph    
Max Gust Speed 28 mph    
Visibility 10 miles    
Events      
T = Trace of Precipitation, MM = Missing Value Source: NWS Daily Summary

Daily Weather History Graph

Daily Weather History Graph

Search for Another Location

Airport or City:

Trip Planner

Search our weather history database for the weather conditions in past years. The results will help you decide how hot, cold, wet, or windy it might be!

Date:

Astronomy

Apr. 29, 2013 Rise Set
Actual Time 5:58 AM CDT 8:00 PM CDT
Civil Twilight 5:28 AM CDT 8:30 PM CDT
Nautical Twilight 4:50 AM CDT 9:08 PM CDT
Astronomical Twilight 4:09 AM CDT 9:49 PM CDT
Moon No Moon Rise 9:17 AM CDT (4/29)
Length of Visible Light 15h 02m
Length of Day
14h 01m
Waning Gibbous, 80% of the Moon is Illuminated
Apr 29
Waning Gibbous
May 2
Last Quarter
May 9
New
May 17
First Quarter
May 24
Full

Hourly Weather History & Observations

Time (CDT) Temp. Dew Point Humidity Pressure Visibility Wind Dir Wind Speed Gust Speed Precip Events Conditions
12:15 AM 55.4 °F 44.6 °F 67% 29.83 in 10.0 mi SSE 5.8 mph - N/A   Clear
12:35 AM 55.4 °F 44.6 °F 67% 29.84 in 10.0 mi SSE 4.6 mph - N/A   Clear
12:55 AM 53.6 °F 44.6 °F 72% 29.84 in 10.0 mi SSE 5.8 mph - N/A   Clear
1:15 AM 53.6 °F 44.6 °F 72% 29.84 in 10.0 mi SSE 5.8 mph - N/A   Clear
1:35 AM 53.6 °F 44.6 °F 72% 29.83 in 10.0 mi SSE 8.1 mph - N/A   Clear
1:55 AM 53.6 °F 42.8 °F 67% 29.82 in 10.0 mi SSE 9.2 mph - N/A   Clear
2:15 AM 51.8 °F 44.6 °F 76% 29.83 in 10.0 mi South 10.4 mph - N/A   Clear
2:35 AM 51.8 °F 44.6 °F 76% 29.83 in 10.0 mi South 10.4 mph - N/A   Clear
2:55 AM 53.6 °F 46.4 °F 77% 29.83 in 10.0 mi South 10.4 mph - N/A   Clear
3:15 AM 51.8 °F 46.4 °F 82% 29.84 in 10.0 mi SW 6.9 mph - N/A   Clear
3:35 AM 51.8 °F 46.4 °F 82% 29.84 in 10.0 mi SW 6.9 mph - N/A   Clear
3:55 AM 51.8 °F 46.4 °F 82% 29.84 in 10.0 mi SSW 9.2 mph - N/A   Clear
4:15 AM 51.8 °F 46.4 °F 82% 29.85 in 10.0 mi SSW 8.1 mph - N/A   Clear
4:35 AM 51.8 °F 46.4 °F 82% 29.85 in 10.0 mi South 6.9 mph - N/A   Clear
4:55 AM 51.8 °F 48.2 °F 88% 29.85 in 10.0 mi South 4.6 mph - N/A   Clear
5:15 AM 51.8 °F 46.4 °F 82% 29.86 in 10.0 mi SW 4.6 mph - N/A   Mostly Cloudy
5:35 AM 51.8 °F 46.4 °F 82% 29.86 in 10.0 mi SSW 5.8 mph - N/A   Mostly Cloudy
5:55 AM 51.8 °F 46.4 °F 82% 29.85 in 10.0 mi South 6.9 mph - N/A   Scattered Clouds
6:15 AM 51.8 °F 46.4 °F 82% 29.85 in 10.0 mi South 6.9 mph - N/A   Clear
6:35 AM 51.8 °F 46.4 °F 82% 29.85 in 10.0 mi South 6.9 mph - N/A   Clear
6:55 AM 51.8 °F 48.2 °F 88% 29.86 in 10.0 mi South 6.9 mph - N/A   Clear
7:15 AM 51.8 °F 48.2 °F 88% 29.87 in 10.0 mi SSW 4.6 mph - N/A   Clear
7:35 AM 51.8 °F 48.2 °F 88% 29.87 in 10.0 mi South 4.6 mph - N/A   Clear
7:55 AM 53.6 °F 50.0 °F 88% 29.87 in 10.0 mi South 3.5 mph - N/A   Clear
8:15 AM 55.4 °F 50.0 °F 82% 29.86 in 10.0 mi South 6.9 mph - N/A   Clear
8:35 AM 55.4 °F 50.0 °F 82% 29.87 in 10.0 mi South 6.9 mph - N/A   Clear
8:55 AM 57.2 °F 50.0 °F 77% 29.86 in 10.0 mi South 8.1 mph - N/A   Clear
9:15 AM 59.0 °F 50.0 °F 72% 29.85 in 10.0 mi South 9.2 mph - N/A   Clear
9:35 AM 59.0 °F 50.0 °F 72% 29.85 in 10.0 mi South 11.5 mph - N/A   Clear
9:55 AM 59.0 °F 50.0 °F 72% 29.84 in 10.0 mi South 10.4 mph - N/A   Mostly Cloudy
10:15 AM 57.2 °F 50.0 °F 77% 29.82 in 10.0 mi SSE 16.1 mph - N/A   Overcast
10:35 AM 59.0 °F 50.0 °F 72% 29.83 in 10.0 mi SSE 13.8 mph - N/A   Mostly Cloudy
10:55 AM 59.0 °F 50.0 °F 72% 29.84 in 10.0 mi South 8.1 mph - N/A   Overcast
11:15 AM 55.4 °F 51.8 °F 88% 29.84 in 7.0 mi SSE 8.1 mph - 0.02 in   Overcast
11:35 AM 55.4 °F 51.8 °F 88% 29.83 in 7.0 mi SE 4.6 mph - 0.05 in   Overcast
11:55 AM 55.4 °F 51.8 °F 88% 29.81 in 7.0 mi ESE 6.9 mph - 0.09 in   Overcast
12:15 PM 55.4 °F 51.8 °F 88% 29.83 in 7.0 mi Calm Calm - 0.02 in   Overcast
12:35 PM 55.4 °F 51.8 °F 88% 29.79 in 5.0 mi SE 13.8 mph 17.3 mph 0.06 in   Overcast
12:55 PM 57.2 °F 51.8 °F 82% 29.77 in 10.0 mi SE 20.7 mph 27.6 mph 0.09 in   Overcast
1:15 PM 59.0 °F 51.8 °F 77% 29.77 in 10.0 mi SE 18.4 mph - N/A   Mostly Cloudy
1:35 PM 62.6 °F 53.6 °F 72% 29.77 in 10.0 mi ESE 17.3 mph - N/A   Scattered Clouds
1:55 PM 64.4 °F 53.6 °F 68% 29.77 in 10.0 mi ESE 17.3 mph 20.7 mph N/A   Clear
2:15 PM 64.4 °F 53.6 °F 68% 29.76 in 10.0 mi SE 16.1 mph - N/A   Scattered Clouds
2:35 PM 66.2 °F 53.6 °F 64% 29.75 in 10.0 mi SE 12.7 mph 20.7 mph N/A   Clear
2:55 PM 68.0 °F 53.6 °F 60% 29.74 in 10.0 mi ESE 13.8 mph - N/A   Clear
3:15 PM 68.0 °F 53.6 °F 60% 29.74 in 10.0 mi ESE 13.8 mph 20.7 mph N/A   Clear
3:35 PM 68.0 °F 53.6 °F 60% 29.73 in 10.0 mi ESE 11.5 mph - N/A   Clear
3:55 PM 68.0 °F 55.4 °F 64% 29.72 in 10.0 mi East 11.5 mph - N/A   Clear
4:15 PM 68.0 °F 55.4 °F 64% 29.71 in 10.0 mi East 9.2 mph - N/A   Clear
4:35 PM 69.8 °F 55.4 °F 60% 29.71 in 10.0 mi ESE 8.1 mph - N/A   Clear
4:55 PM 73.4 °F 53.6 °F 50% 29.70 in 10.0 mi SE 13.8 mph - N/A   Scattered Clouds
5:15 PM 73.4 °F 55.4 °F 53% 29.70 in 10.0 mi SE 13.8 mph - N/A   Scattered Clouds
5:35 PM 73.4 °F 55.4 °F 53% 29.69 in 10.0 mi SSE 13.8 mph - N/A   Scattered Clouds
5:55 PM 73.4 °F 55.4 °F 53% 29.69 in 10.0 mi SSE 11.5 mph - N/A   Scattered Clouds
6:15 PM 73.4 °F 55.4 °F 53% 29.69 in 10.0 mi SSE 15.0 mph 18.4 mph N/A   Scattered Clouds
6:35 PM 73.4 °F 55.4 °F 53% 29.69 in 10.0 mi SSE 12.7 mph 19.6 mph N/A   Mostly Cloudy
6:55 PM 71.6 °F 55.4 °F 57% 29.68 in 10.0 mi SSE 10.4 mph - N/A   Scattered Clouds
7:15 PM 69.8 °F 57.2 °F 64% 29.69 in 10.0 mi SE 8.1 mph - N/A   Scattered Clouds
7:35 PM 69.8 °F 57.2 °F 64% 29.68 in 10.0 mi SE 8.1 mph - N/A   Mostly Cloudy
7:55 PM 68.0 °F 55.4 °F 64% 29.68 in 10.0 mi SE 10.4 mph - N/A   Scattered Clouds
8:15 PM 68.0 °F 55.4 °F 64% 29.68 in 10.0 mi ESE 9.2 mph - N/A   Mostly Cloudy
8:35 PM 68.0 °F 55.4 °F 64% 29.69 in 10.0 mi ESE 9.2 mph - N/A   Mostly Cloudy
8:55 PM 68.0 °F 55.4 °F 64% 29.70 in 10.0 mi SE 9.2 mph - N/A   Overcast
9:15 PM 66.2 °F 55.4 °F 68% 29.71 in 10.0 mi SE 11.5 mph - N/A   Mostly Cloudy
9:35 PM 64.4 °F 55.4 °F 73% 29.70 in 10.0 mi SE 11.5 mph - N/A   Mostly Cloudy
9:55 PM 64.4 °F 57.2 °F 77% 29.70 in 10.0 mi SE 13.8 mph 18.4 mph N/A   Scattered Clouds
10:15 PM 64.4 °F 57.2 °F 77% 29.70 in 10.0 mi SE 12.7 mph - N/A   Clear
10:35 PM 64.4 °F 57.2 °F 77% 29.70 in 10.0 mi SSE 12.7 mph - N/A   Clear
10:55 PM 64.4 °F 57.2 °F 77% 29.69 in 10.0 mi SSE 15.0 mph - N/A   Clear
11:15 PM 64.4 °F 57.2 °F 77% 29.69 in 10.0 mi SSE 16.1 mph - N/A   Clear
11:35 PM 64.4 °F 55.4 °F 73% 29.69 in 10.0 mi SSE 15.0 mph - N/A   Clear
11:55 PM 62.6 °F 57.2 °F 82% 29.69 in 10.0 mi SSE 13.8 mph - N/A   Scattered Clouds